Simultaneous Nadir Overpasses (SNOs) Predictions

Prediction of SNOs between GOES-16 and METOP-C Satellite Orbit:

Table of predicted SNOs for the next 14.0 days since TLE Epoch: 8/19/2023
Index Date Time (GOES-16) GOES-16 Lat,Lon METOP-C Lat,Lon Distance(km) Time Diff (sec)
1 08/20/2023 02:29:25 0.03, -75.21 0.00, -75.31 11.37 80
2 08/22/2023 14:30:16 -0.03, -75.23 -0.09, -74.87 40.66 80
3 08/24/2023 02:46:35 0.03, -75.23 -0.93, -79.46 482.56 80
4 08/25/2023 02:28:34 0.02, -75.24 0.17, -74.46 87.51 80
5 08/26/2023 14:44:45 -0.02, -75.25 0.82, -79.03 430.37 80
6 08/27/2023 14:24:05 -0.02, -75.26 -0.28, -74.03 139.74 80
7 08/29/2023 02:45:43 0.01, -75.26 -0.73, -78.62 382.84 80
8 08/30/2023 02:22:23 0.01, -75.28 0.37, -73.63 187.71 80
9 08/31/2023 14:43:53 -0.01, -75.30 0.66, -78.18 328.74 80
10 09/01/2023 14:20:34 -0.01, -75.32 -0.51, -73.20 242.39 80
